M I D A S
Marine Information and Data Acquisition System
Tripno 489 of the Zeeleeuw from 2003-04-10 06:47:10 to 2003-04-10 14:06:13
Back to CruiseResearch ActivitiesStationsMapUnderway DataData graphs

EquipmentUnitsComments
TimeDGPSUTC
LatitudeDGPSDM.mWGS84
LongitudeDGPSDM.mWGS84
SpeedMeteo Stationm/sRelative wind speed
DirectionMeteo StationdegRelative wind direction
TemperatureMeteo Stationdeg CelciusAir temperature
PressureMeteo StationPaAtmospheric pressure
HumidityMeteo Station%Relative humidity
Missing or incorrect values are displayed as -999
Metereological data collected by the RV Zeeleeuw from 2003-04-10 06:47:10 to 2003-04-10 14:06:13
Time Latitude Longitude Speed Direction Temperature Pressure Humidity
2003-04-10 06:48 51°13.6 2°56.1 1.4 11 3.3 100650 86
2003-04-10 06:49 51°13.61 2°56.05   13 3.3 100650 86
2003-04-10 06:50 51°13.64 2°55.95 0.9 142 3.4 100650 86
2003-04-10 06:51 51°13.66 2°55.86 1 121 3.3 100650 86
2003-04-10 06:52 51°13.68 2°55.78 0.7 90 3.3 100640 86
2003-04-10 06:53 51°13.68 2°55.79 2.5 358 3.3 100640 86
2003-04-10 06:54 51°13.68 2°55.76 1.6 338 3.2 100640 85
2003-04-10 06:55 51°13.7 2°55.77 3.4 307 3.1 100640 85
2003-04-10 06:56 51°13.75 2°55.72 2 302 3 100640 85
2003-04-10 06:57 51°13.83 2°55.63 3.9 327 2.9 100650 85
2003-04-10 06:58 51°13.95 2°55.54 4.5 302 2.8 100650 85
2003-04-10 06:59 51°14.07 2°55.46 4.1 326 2.7 100650 85
2003-04-10 07:00 51°14.2 2°55.35 3.6 309 2.7 100650 85
2003-04-10 07:01 51°14.3 2°55.18 4.4 323 2.7 100650 86
2003-04-10 07:02 51°14.41 2°54.97 4.6 319 2.7 100650 86
2003-04-10 07:03 51°14.57 2°54.83 5.6 315 2.7 100630 86
2003-04-10 07:04 51°14.74 2°54.67 6.5 326 2.6 100650 85
2003-04-10 07:05 51°14.92 2°54.51 6.5 321 2.6 100640 86
2003-04-10 07:06 51°15.09 2°54.34 6.3 306 2.6 100640 86
2003-04-10 07:07 51°15.27 2°54.16 7.8 316 2.6 100630 86
2003-04-10 07:08 51°15.45 2°53.96 7.3 322 2.6 100640 86
2003-04-10 07:09 51°15.64 2°53.75 6.9 325 2.7 100630 86
2003-04-10 07:10 51°15.84 2°53.54 6.5 320 2.7 100640 86
2003-04-10 07:11 51°16.03 2°53.34 6.4 321 2.7 100640 86
2003-04-10 07:12 51°16.23 2°53.15 7.6 322 2.9 100630 86
2003-04-10 07:13 51°16.44 2°52.98 6.2 329 2.9 100630 86
2003-04-10 07:14 51°16.64 2°52.81 5.9 320 2.9 100650 86
2003-04-10 07:15 51°16.85 2°52.66 6.8 315 3 100640 86
2003-04-10 07:16 51°17.08 2°52.55 7.8 324 2.9 100630 86
2003-04-10 07:17 51°17.31 2°52.49 7.7 324 3 100640 85
2003-04-10 07:18 51°17.55 2°52.43 8.8 333 3 100640 85
2003-04-10 07:19 51°17.79 2°52.4 9.4 324 3 100630 85
2003-04-10 07:20 51°18.02 2°52.43 11.3 327 3.2 100640 85
2003-04-10 07:21 51°18.24 2°52.59 8.5 335 3.3 100640 85
2003-04-10 07:22 51°18.44 2°52.8 11.9 338 3.3 100640 85
2003-04-10 07:23 51°18.63 2°53.04 12.6 342 3.2 100630 84
2003-04-10 07:24 51°18.81 2°53.29 13 345 3.3 100640 82
2003-04-10 07:25 51°18.97 2°53.58 13.8 345 3.4 100630 80
2003-04-10 07:26 51°19.13 2°53.87 11.7 345 3.5 100650 78
2003-04-10 07:27 51°19.25 2°54.19 13.2 3 3.6 100640 78
2003-04-10 07:28 51°19.35 2°54.53 13.8 358 3.6 100630 77
2003-04-10 07:29 51°19.46 2°54.87 13.9 355 3.6 100630 77
2003-04-10 07:30 51°19.56 2°55.21 12.8   3.6 100640 76
2003-04-10 07:31 51°19.66 2°55.55 13.6 356 3.6 100640 76
2003-04-10 07:32 51°19.75 2°55.91 12.5 8 3.6 100630 76
2003-04-10 07:33 51°19.82 2°56.26 12.8 3 3.5 100630 76
2003-04-10 07:34 51°19.9 2°56.62 15 5 3.6 100650 76
2003-04-10 07:35 51°19.98 2°56.97 14.8 5 3.5 100630 76
2003-04-10 07:36 51°20.06 2°57.33 13.9 8 3.6 100630 76
2003-04-10 07:37 51°20.14 2°57.68 14.6 12 3.6 100630 76
2003-04-10 07:38 51°20.22 2°58.04 14.5 2 3.7 100620 77
2003-04-10 07:39 51°20.3 2°58.39 13.2 359 3.7 100630 77
2003-04-10 07:40 51°20.38 2°58.75 14.7   3.7 100640 76
2003-04-10 07:41 51°20.46 2°59.1 13.9 360 3.8 100640 75
2003-04-10 07:42 51°20.54 2°59.45 13.4 5 3.7 100630 74
2003-04-10 07:43 51°20.62 2°59.8 13.1 358 3.8 100650 75
2003-04-10 07:44 51°20.7 3°0.15 12.5 359 3.7 100650 74
2003-04-10 07:45 51°20.78 3°0.5 16.2   3.7 100650 74
2003-04-10 07:46 51°20.86 3°0.85 14.9 1 3.7 100640 74
2003-04-10 07:47 51°20.94 3°1.2 13.4 5 3.7 100630 73
2003-04-10 07:48 51°21.02 3°1.55 16.3 3 3.7 100640 72
2003-04-10 07:49 51°21.1 3°1.9 14.6 8 3.7 100630 69
2003-04-10 07:50 51°21.18 3°2.25 12.1 6 3.8 100640 69
2003-04-10 07:51 51°21.26 3°2.6 14.8 360 3.7 100650 68
2003-04-10 07:52 51°21.34 3°2.95 13.3 359 3.8 100650 70
2003-04-10 07:53 51°21.42 3°3.31 12.7 355 3.7 100650 72
2003-04-10 07:54 51°21.5 3°3.66 13.3 3 3.7 100660 72
2003-04-10 07:55 51°21.58 3°4.01 15.2 5 3.7 100660 73
2003-04-10 07:56 51°21.66 3°4.36 14.7 3 3.6 100660 72
2003-04-10 07:57 51°21.74 3°4.71 13.4 359 3.7 100660 72
2003-04-10 07:58 51°21.82 3°5.05 14.4 5 3.7 100640 73
2003-04-10 07:59 51°21.89 3°5.4 14.6 355 3.7 100660 72
2003-04-10 08:00 51°21.97 3°5.75 13.5 5 3.6 100640 72
2003-04-10 08:01 51°22.05 3°6.09 12.7 2 3.6 100640 72
2003-04-10 08:02 51°22.12 3°6.44 15.4 2 3.7 100650 73
2003-04-10 08:03 51°22.2 3°6.78 15.4 360 3.7 100660 73
2003-04-10 08:04 51°22.28 3°7.12 13.7 353 3.6 100640 73
2003-04-10 08:05 51°22.35 3°7.46 13.9 6 3.6 100640 74
2003-04-10 08:06 51°22.43 3°7.8 13.3 3 3.6 100660 74
2003-04-10 08:07 51°22.5 3°8.15 14.3 2 3.7 100660 76
2003-04-10 08:08 51°22.54 3°8.5 13.9 5 3.6 100660 74
2003-04-10 08:09 51°22.58 3°8.86 15.7 14 3.7 100640 75
2003-04-10 08:10 51°22.62 3°9.22 15.2 12 3.6 100640 74
2003-04-10 08:11 51°22.67 3°9.57 14.7 7 3.6 100650 72
2003-04-10 08:12 51°22.71 3°9.92 14.5 14 3.6 100640 72
2003-04-10 08:13 51°22.74 3°10.27 14.6 8 3.6 100650 70
2003-04-10 08:14 51°22.78 3°10.63 14.5 13 3.6 100660 68
2003-04-10 08:15 51°22.8 3°10.98 14.1 10 3.6 100650 66
2003-04-10 08:16 51°22.83 3°11.33 14.4 16 3.6 100640 66
2003-04-10 08:17 51°22.85 3°11.68 13.9 7 3.5 100640 67
2003-04-10 08:18 51°22.88 3°12.04 15.4 14 3.6 100640 68
2003-04-10 08:19 51°22.9 3°12.39 14.1 6 3.6 100650 69
2003-04-10 08:20 51°22.92 3°12.75 12.1 9 3.6 100660 69
2003-04-10 08:21 51°22.95 3°13.1 13 10 3.6 100650 70
2003-04-10 08:22 51°22.97 3°13.45 12.5 5 3.5 100650 71
2003-04-10 08:23 51°23 3°13.81 12.8 359 3.6 100660 72
2003-04-10 08:24 51°23.02 3°14.16 11.6 359 3.5 100670 72
2003-04-10 08:25 51°23.04 3°14.51 14.8 5 3.5 100660 72
2003-04-10 08:26 51°23.06 3°14.87 13.5 7 3.4 100650 71
2003-04-10 08:27 51°23.08 3°15.22 12.6 5 3.5 100650 72
2003-04-10 08:28 51°23.1 3°15.57 12.3 6 3.4 100660 72
2003-04-10 08:29 51°23.12 3°15.92 13 10 3.5 100660 73
2003-04-10 08:30 51°23.14 3°16.26 12.9 6 3.4 100650 73
2003-04-10 08:31 51°23.16 3°16.61 12.5 355 3.4 100660 72
2003-04-10 08:32 51°23.18 3°16.96 13.1 352 3.4 100660 74
2003-04-10 08:33 51°23.2 3°17.31 12.6 355 3.4 100670 75
2003-04-10 08:34 51°23.24 3°17.65 12.5 352 3.4 100660 76
2003-04-10 08:35 51°23.29 3°17.99 13.2 356 3.3 100660 75
2003-04-10 08:36 51°23.4 3°18.29 12.3 335 3.3 100670 76
2003-04-10 08:37 51°23.6 3°18.4 11.6 338 3.2 100670 76
2003-04-10 08:38 51°23.81 3°18.53 11.2 339 3.1 100670 76
2003-04-10 08:39 51°24.02 3°18.68 10.8 339 3 100670 77
2003-04-10 08:40 51°24.23 3°18.8 10.6 332 3 100680 78
2003-04-10 08:41 51°24.43 3°18.97 10.8 343 3 100670 78
2003-04-10 08:42 51°24.61 3°19.18 10.7 344 3 100670 78
2003-04-10 08:43 51°24.76 3°19.44 11.1 356 3 100680 78
2003-04-10 08:44 51°24.84 3°19.76 11.9 359 3 100670 77
2003-04-10 08:45 51°24.91 3°20.09 10.7 351 3.1 100680 77
2003-04-10 08:46 51°24.98 3°20.41 10.8 355 3.1 100680 77
2003-04-10 08:47 51°25.04 3°20.73 12.7 360 3.1 100670 77
2003-04-10 08:48 51°25.11 3°21.05 11.8 358 3.1 100670 77
2003-04-10 08:49 51°25.18 3°21.37 11.9 2 3.1 100670 76
2003-04-10 08:50 51°25.25 3°21.69 11.3 356 3.1 100670 75
2003-04-10 08:51 51°25.32 3°22.01 11 358 3.1 100670 75
2003-04-10 08:52 51°25.37 3°22.24 6.9 9 3.1 100660 74
2003-04-10 08:53 51°25.36 3°22.33 4.9 37 3.2 100680 73
2003-04-10 08:54 51°25.33 3°22.37 5.3 40 3.3 100670 73
2003-04-10 08:55 51°25.32 3°22.4 3.9 316 3.3 100680 72
2003-04-10 08:56 51°25.31 3°22.41 3.8 47 3.5 100680 72
2003-04-10 08:57 51°25.3 3°22.41 4.1 56 3.5 100680 72
2003-04-10 08:58 51°25.3 3°22.4 4.2 42 3.6 100680 72
2003-04-10 08:59 51°25.3 3°22.38 3.2 71 3.6 100680 72
2003-04-10 09:00 51°25.3 3°22.35 3.3 56 3.7 100680 72
2003-04-10 09:01 51°25.29 3°22.31 3.7 90 3.7 100680 72
2003-04-10 09:02 51°25.3 3°22.26 2.1 102 3.5 100680 71
2003-04-10 09:03 51°25.3 3°22.22 2.8 118 3.4 100680 71
2003-04-10 09:04 51°25.29 3°22.19 2.3 50 3.4 100680 72
2003-04-10 09:05 51°25.29 3°22.2 4.1 17 3.3 100680 72
2003-04-10 09:06 51°25.32 3°22.21 3.9 340 3.3 100680 72
2003-04-10 09:07 51°25.38 3°22.16 4.2 316 3.3 100680 72
2003-04-10 09:08 51°25.44 3°22.08 3.8 330 3.1 100670 72
2003-04-10 09:09 51°25.53 3°22.02 3.6 329 3.1 100670 73
2003-04-10 09:10 51°25.61 3°21.99 4.2 335 3.1 100670 73
2003-04-10 09:11 51°25.65 3°22.01 3.3 353 3.1 100670 73
2003-04-10 09:12 51°25.67 3°22.04 4.9 20 3.2 100680 73
2003-04-10 09:13 51°25.68 3°22.08 4.3 20 3.3 100680 73
2003-04-10 09:14 51°25.7 3°22.13 4.6 21 3.5 100680 71
2003-04-10 09:15 51°25.71 3°22.19 4.1 23 3.6 100670 70
2003-04-10 09:16 51°25.71 3°22.24 4.6 32 3.7 100670 69
2003-04-10 09:17 51°25.72 3°22.3 4.8 27 3.8 100670 67
2003-04-10 09:18 51°25.72 3°22.35 4.1 31 3.7 100670 66
2003-04-10 09:19 51°25.73 3°22.41 5 9 3.7 100670 65
2003-04-10 09:20 51°25.72 3°22.47 4.2 10 3.7 100670 67
2003-04-10 09:21 51°25.72 3°22.53 4.2 24 3.7 100670 67
2003-04-10 09:22 51°25.73 3°22.59 4.1 10 3.7 100670 67
2003-04-10 09:23 51°25.73 3°22.65 3.4 27 3.8 100680 67
2003-04-10 09:24 51°25.73 3°22.7 4.3 20 3.8 100670 67
2003-04-10 09:25 51°25.73 3°22.76 3.8 16 3.8 100680 65
2003-04-10 09:26 51°25.73 3°22.82 3.9 12 3.9 100680 66
2003-04-10 09:27 51°25.74 3°22.88 4 2 3.9 100670 66
2003-04-10 09:28 51°25.75 3°22.93 5.1 25 3.9 100680 65
2003-04-10 09:29 51°25.75 3°22.99 4.8 29 3.9 100670 65
2003-04-10 09:30 51°25.75 3°23.05 3.9 28 4 100670 65
2003-04-10 09:31 51°25.74 3°23.11 3.4 21 4.1 100670 65
2003-04-10 09:32 51°25.74 3°23.16 4.3 24 4.1 100670 65
2003-04-10 09:33 51°25.75 3°23.22 5.3 351 4.2 100670 65
2003-04-10 09:34 51°25.75 3°23.28 4.3 353 4 100680 64
2003-04-10 09:35 51°25.75 3°23.33 4.5 355 4 100680 65
2003-04-10 09:36 51°25.75 3°23.39 5.8 356 4 100680 65
2003-04-10 09:37 51°25.75 3°23.45 4.6 356 3.9 100680 65
2003-04-10 09:38 51°25.75 3°23.51 3.9 7 3.9 100680 65
2003-04-10 09:39 51°25.75 3°23.56 4.2 25 4 100690 65
2003-04-10 09:40 51°25.76 3°23.62 3.5 16 4.1 100690 65
2003-04-10 09:41 51°25.76 3°23.68 3.4 27 4.1 100690 65
2003-04-10 09:42 51°25.75 3°23.74 3.1 28 4.2 100680 65
2003-04-10 09:43 51°25.73 3°23.78 2.7 131 4.4 100690 64
2003-04-10 09:44 51°25.7 3°23.8 1.9 67 4.5 100690 64
2003-04-10 09:45 51°25.66 3°23.8 2.6 54 4.6 100690 63
2003-04-10 09:46 51°25.61 3°23.75 2.1 62 4.7 100680 63
2003-04-10 09:47 51°25.58 3°23.68 2 76 4.7 100690 63
2003-04-10 09:48 51°25.55 3°23.61 3.1 97 4.6 100690 63
2003-04-10 09:49 51°25.53 3°23.54 2.4 92 4.5 100680 63
2003-04-10 09:50 51°25.52 3°23.46 1.9 101 4.4 100690 64
2003-04-10 09:51 51°25.5 3°23.39 0.7 105 4.4 100690 64
2003-04-10 09:52 51°25.5 3°23.26 1.6 291 4.3 100690 64
2003-04-10 09:53 51°25.57 3°23.19 4 328 4.3 100680 63
2003-04-10 09:54 51°25.6 3°23.24 3.7 9 4.1 100690 65
2003-04-10 09:55 51°25.58 3°23.26 1.6 47 4.1 100680 66
2003-04-10 09:56 51°25.58 3°23.23 1.2 80 4.2 100690 66
2003-04-10 09:57 51°25.57 3°23.19 1.8 97 4.3 100690 66
2003-04-10 09:58 51°25.57 3°23.15 1.4 92 4.4 100690 66
2003-04-10 09:59 51°25.57 3°23.1 1.4 156 4.5 100690 66
2003-04-10 10:00 51°25.56 3°23.06 2 140 4.6 100690 66
2003-04-10 10:01 51°25.55 3°23.01 0.9 159 4.6 100690 65
2003-04-10 10:02 51°25.54 3°22.96 1.1 143 4.6 100690 64
2003-04-10 10:03 51°25.53 3°22.92 1 143 4.7 100680 64
2003-04-10 10:04 51°25.52 3°22.87 0.3 128 4.9 100690 64
2003-04-10 10:05 51°25.51 3°22.82 0.1 185 5.1 100680 64
2003-04-10 10:06 51°25.49 3°22.77 0.1 125 5.3 100680 64
2003-04-10 10:07 51°25.47 3°22.74 0.4 80 5.6 100690 63
2003-04-10 10:08 51°25.45 3°22.71 0.9 119 5.8 100690 62
2003-04-10 10:09 51°25.44 3°22.68 1.4 351 5.8 100690 61
2003-04-10 10:10 51°25.43 3°22.67 1.9 355 5.9 100680 60
2003-04-10 10:11 51°25.42 3°22.65 1.3 13 5.8 100690 59
2003-04-10 10:12 51°25.41 3°22.63 1.6 336 5.7 100690 60
2003-04-10 10:13 51°25.4 3°22.61 2 21 5.8 100690 60
2003-04-10 10:14 51°25.4 3°22.59 1 316 6 100690 61
2003-04-10 10:15 51°25.39 3°22.57 0.7 43 6.1 100690 60
2003-04-10 10:16 51°25.38 3°22.54 0.4 35 6.3 100690 62
2003-04-10 10:17 51°25.38 3°22.52 0.6 7 6.5 100690 65
2003-04-10 10:18 51°25.37 3°22.49 0.3 351 6.9 100690 60
2003-04-10 10:19 51°25.37 3°22.47 0.6 359 7 100680 58
2003-04-10 10:20 51°25.36 3°22.44 1.1 338 7.2 100680 57
2003-04-10 10:21 51°25.3 3°22.49 4.3 351 7 100680 54
2003-04-10 10:22 51°25.19 3°22.42 3.8 8 6.3 100680 56
2003-04-10 10:23 51°25.1 3°22.24 5.4 356 5.9 100680 57
2003-04-10 10:24 51°24.91 3°22.05 6.7 359 5.5 100680 59
2003-04-10 10:25 51°24.71 3°21.85 6.6 349 5.1 100670 60
2003-04-10 10:26 51°24.5 3°21.62 6.9   4.8 100680 61
2003-04-10 10:27 51°24.29 3°21.43 6.4 359 4.6 100680 62
2003-04-10 10:28 51°24.09 3°21.32 5.7 359 4.5 100680 63
2003-04-10 10:29 51°23.97 3°21.15 2.5 350 4.4 100690 63
2003-04-10 10:30 51°23.9 3°20.99 2.2 11 4.4 100680 64
2003-04-10 10:31 51°23.83 3°20.86 1.8 357 4.6 100690 64
2003-04-10 10:32 51°23.78 3°20.77 0.9 1 4.8 100680 62
2003-04-10 10:33 51°23.73 3°20.72 0.6 8 4.9 100680 62
2003-04-10 10:34 51°23.7 3°20.68 0.6 33 5.2 100680 62
2003-04-10 10:35 51°23.67 3°20.64 1.5 318 5.6 100680 62
2003-04-10 10:36 51°23.64 3°20.6 1.9 65 5.9 100680 60
2003-04-10 10:37 51°23.62 3°20.56 1.5 64 6.1 100690 58
2003-04-10 10:38 51°23.6 3°20.53 0.8 64 6.3 100690 58
2003-04-10 10:39 51°23.58 3°20.49 0.5 56 6.4 100680 57
2003-04-10 10:40 51°23.57 3°20.45 1.1 56 6.7 100680 57
2003-04-10 10:41 51°23.55 3°20.41 1.6 44 6.9 100680 56
2003-04-10 10:42 51°23.53 3°20.37 0.8 59 7.1 100680 55
2003-04-10 10:43 51°23.52 3°20.33 1.1 47 7.2 100680 54
2003-04-10 10:44 51°23.51 3°20.29 0.8 51 7.3 100680 54
2003-04-10 10:45 51°23.49 3°20.25 0.9 54 7.5 100680 54
2003-04-10 10:46 51°23.48 3°20.21 1.1 70 7.6 100680 53
2003-04-10 10:47 51°23.47 3°20.17 1.2 41 7.7 100680 52
2003-04-10 10:48 51°23.45 3°20.13 1 31 7.8 100680 52
2003-04-10 10:49 51°23.44 3°20.09 1 31 7.9 100680 52
2003-04-10 10:50 51°23.43 3°20.05 0.7 29 8 100680 51
2003-04-10 10:51 51°23.41 3°20.01 1.4 28 7.9 100680 51
2003-04-10 10:52 51°23.4 3°19.96 0.6 47 7.9 100680 51
2003-04-10 10:53 51°23.38 3°19.92 0.6 59 8 100680 51
2003-04-10 10:54 51°23.37 3°19.87 0.3 28 7.9 100680 51
2003-04-10 10:55 51°23.35 3°19.82 0.6 27 7.9 100680 51
2003-04-10 10:56 51°23.34 3°19.76 0.5 12 7.9 100680 51
2003-04-10 10:57 51°23.32 3°19.71 0.4 13 7.8 100680 51
2003-04-10 10:58 51°23.31 3°19.65 0.4 341 7.6 100680 51
2003-04-10 10:59 51°23.29 3°19.58 1.1 345 7.3 100680 53
2003-04-10 11:00 51°23.28 3°19.48 3.6 4 7 100680 55
2003-04-10 11:01 51°23.33 3°19.37 3.4 32 6.5 100680 56
2003-04-10 11:02 51°23.41 3°19.3 3.4 25 6.2 100680 57
2003-04-10 11:03 51°23.46 3°19.13 4.1 14 5.9 100680 57
2003-04-10 11:04 51°23.5 3°18.92 4.6 359 5.6 100680 58
2003-04-10 11:05 51°23.54 3°18.73 3.7 359 5.3 100680 60
2003-04-10 11:06 51°23.6 3°18.63 2 20 5.1 100680 60
2003-04-10 11:07 51°23.66 3°18.61 1.1 348 5 100690 60
2003-04-10 11:08 51°23.68 3°18.66 1.6 348 4.9 100690 60
2003-04-10 11:09 51°23.67 3°18.73 1.9 15 4.8 100680 61
2003-04-10 11:10 51°23.68 3°18.8 2.2 27 4.8 100680 61
2003-04-10 11:11 51°23.69 3°18.88 3.4 14 4.8 100680 61
2003-04-10 11:12 51°23.7 3°18.94 2 17 4.9 100680 62
2003-04-10 11:13 51°23.71 3°19 3.4 42 4.8 100690 61
2003-04-10 11:14 51°23.72 3°19.05 3.6 56 4.8 100680 62
2003-04-10 11:15 51°23.73 3°19.1 3.8 62 4.8 100680 62
2003-04-10 11:16 51°23.74 3°19.15 4.6 61 4.8 100680 62
2003-04-10 11:17 51°23.74 3°19.21 4.1 67 4.8 100680 62
2003-04-10 11:18 51°23.75 3°19.26 3.7 55 4.8 100680 61
2003-04-10 11:19 51°23.75 3°19.31 3.9 63 4.8 100680 63
2003-04-10 11:20 51°23.75 3°19.36 4.4 70 4.8 100680 62
2003-04-10 11:21 51°23.75 3°19.42 3.7 104 4.6 100690 62
2003-04-10 11:22 51°23.74 3°19.47 4.6 55 4.6 100680 62
2003-04-10 11:23 51°23.74 3°19.52 4.4 48 4.6 100680 62
2003-04-10 11:24 51°23.73 3°19.57 6 67 4.6 100690 62
2003-04-10 11:25 51°23.73 3°19.62 5.3 49 4.6 100680 62
2003-04-10 11:26 51°23.73 3°19.67 4.2 52 4.5 100680 61
2003-04-10 11:27 51°23.73 3°19.73 3.7 50 4.5 100680 61
2003-04-10 11:28 51°23.73 3°19.78 4.8 65 4.4 100680 62
2003-04-10 11:29 51°23.71 3°19.83 4.6 59 4.4 100680 64
2003-04-10 11:30 51°23.71 3°19.89 4.8 59 4.4 100680 64
2003-04-10 11:31 51°23.7 3°19.95 4.5 62 4.4 100680 64
2003-04-10 11:32 51°23.7 3°20.01 4.6 61 4.3 100680 63
2003-04-10 11:33 51°23.7 3°20.07 5.4 59 4.2 100680 63
2003-04-10 11:34 51°23.7 3°20.13 3.8 61 4.2 100680 62
2003-04-10 11:35 51°23.71 3°20.19 3.4 70 4.2 100680 63
2003-04-10 11:36 51°23.71 3°20.25 3.4 68 4.2 100680 63
2003-04-10 11:37 51°23.72 3°20.31 4 59 4.2 100680 63
2003-04-10 11:38 51°23.71 3°20.38 4.4 61 4.3 100680 63
2003-04-10 11:39 51°23.71 3°20.44 4.3 62 4.3 100680 64
2003-04-10 11:40 51°23.71 3°20.51 5.6 86 4.2 100680 63
2003-04-10 11:41 51°23.7 3°20.58 5 71 4.2 100690 63
2003-04-10 11:42 51°23.69 3°20.64 4.6 80 4.2 100680 64
2003-04-10 11:43 51°23.68 3°20.71 3.8 102 4.2 100680 66
2003-04-10 11:44 51°23.66 3°20.75 3.5 127 4.1 100680 66
2003-04-10 11:45 51°23.64 3°20.78 4 114 4.1 100680 65
2003-04-10 11:46 51°23.62 3°20.8 4.1 82 4.1 100680 65
2003-04-10 11:47 51°23.61 3°20.85 5 71 4.1 100680 64
2003-04-10 11:48 51°23.62 3°20.89 6.1 62 4.2 100680 64
2003-04-10 11:49 51°23.63 3°20.9 4.9 57 4.2 100670 63
2003-04-10 11:50 51°23.64 3°20.9 6 60 4.2 100670 63
2003-04-10 11:51 51°23.65 3°20.89 5.2 61 4.2 100670 64
2003-04-10 11:52 51°23.65 3°20.87 5.8 45 4.3 100670 67
2003-04-10 11:53 51°23.66 3°20.85 4.7 53 4.3 100670 66
2003-04-10 11:54 51°23.66 3°20.83 4.9 39 4.3 100670 66
2003-04-10 11:55 51°23.66 3°20.81 5.5 50 4.3 100670 65
2003-04-10 11:56 51°23.66 3°20.79 4.9 53 4.3 100670 65
2003-04-10 11:57 51°23.66 3°20.77 5.6 47 4.3 100670 65
2003-04-10 11:58 51°23.66 3°20.75 5.4 52 4.4 100670 65
2003-04-10 11:59 51°23.66 3°20.73 5.4 45 4.4 100670 63
2003-04-10 12:00 51°23.65 3°20.7 5.4 49 4.6 100670 65
2003-04-10 12:01 51°23.66 3°20.68 6.3 37 4.7 100670 65
2003-04-10 12:02 51°23.66 3°20.66 4.9 37 4.8 100670 62
2003-04-10 12:03 51°23.66 3°20.64 5 31 4.7 100660 62
2003-04-10 12:04 51°23.67 3°20.62 5.3 18 4.7 100670 62
2003-04-10 12:05 51°23.68 3°20.6 3.3 11 4.6 100670 62
2003-04-10 12:06 51°23.68 3°20.57 6 11 4.6 100670 64
2003-04-10 12:07 51°23.69 3°20.54 4.7   4.5 100670 62
2003-04-10 12:08 51°23.7 3°20.51 5.6 329 4.4 100680 63
2003-04-10 12:09 51°23.7 3°20.46 6.1 306 4.4 100670 63
2003-04-10 12:10 51°23.7 3°20.41 4.9 279 4.2 100670 65
2003-04-10 12:11 51°23.7 3°20.34 4.4 267 4.2 100670 64
2003-04-10 12:12 51°23.69 3°20.28 5 259 4.1 100670 65
2003-04-10 12:13 51°23.68 3°20.21 4.5 249 4.1 100670 62
2003-04-10 12:14 51°23.67 3°20.15 4.3 244 4.1 100680 63
2003-04-10 12:15 51°23.66 3°20.08 4.8 252 4.2 100680 66
2003-04-10 12:16 51°23.65 3°20.02 5.5 246 4.2 100680 67
2003-04-10 12:17 51°23.64 3°19.96 5.2 268 4.2 100680 64
2003-04-10 12:18 51°23.63 3°19.91 4.2 266 4.2 100680 64
2003-04-10 12:19 51°23.63 3°19.87 5.1 278 4.2 100680 65
2003-04-10 12:20 51°23.62 3°19.84 5.6 273 4.2 100680 65
2003-04-10 12:21 51°23.61 3°19.8 6.5 261 4 100680 64
2003-04-10 12:22 51°23.6 3°19.77 4.1 252 4.1 100670 65
2003-04-10 12:23 51°23.59 3°19.73 3.9 236 4.1 100680 65
2003-04-10 12:24 51°23.58 3°19.7 5.9 250 4.2 100670 68
2003-04-10 12:25 51°23.57 3°19.66 4.8 243 4.2 100670 65
2003-04-10 12:26 51°23.56 3°19.62 4 241 4.2 100670 66
2003-04-10 12:27 51°23.55 3°19.58 3.7 246 4.2 100680 65
2003-04-10 12:28 51°23.54 3°19.54 4.4 240 4.2 100670 65
2003-04-10 12:29 51°23.53 3°19.5 5 253 4.2 100680 66
2003-04-10 12:30 51°23.52 3°19.46 5.4 258 4.2 100670 65
2003-04-10 12:31 51°23.52 3°19.41 3.7 266 4.1 100680 63
2003-04-10 12:32 51°23.51 3°19.36 4.6 278 4.1 100680 63
2003-04-10 12:33 51°23.48 3°19.12 6.2 314 4 100670 63
2003-04-10 12:34 51°23.43 3°18.73 8.7 324 4 100680 65
2003-04-10 12:35 51°23.38 3°18.34 9.2 322 4 100670 65
2003-04-10 12:36 51°23.33 3°17.97 7.7 317 4 100680 62
2003-04-10 12:37 51°23.28 3°17.6 8.2 312 4 100680 64
2003-04-10 12:38 51°23.24 3°17.21 8.5 316 4 100670 63
2003-04-10 12:39 51°23.2 3°16.84 8.7 319 4 100680 64
2003-04-10 12:40 51°23.14 3°16.49 7.3 314 4 100680 63
2003-04-10 12:41 51°23.11 3°16.11 7.7 323 4 100670 61
2003-04-10 12:42 51°23.06 3°15.74 8 323 4 100680 61
2003-04-10 12:43 51°23.02 3°15.37 8.8 309 4.1 100680 62
2003-04-10 12:44 51°22.98 3°15 8.8 324 4.1 100680 62
2003-04-10 12:45 51°22.93 3°14.61 10.2 320 4.1 100680 61
2003-04-10 12:46 51°22.89 3°14.23 9.2 310 4.1 100670 61
2003-04-10 12:47 51°22.85 3°13.86 8.5 319 4.1 100680 60
2003-04-10 12:48 51°22.8 3°13.47 8.8 327 4 100670 58
2003-04-10 12:49 51°22.76 3°13.08 9.1 324 4.1 100670 61
2003-04-10 12:50 51°22.71 3°12.7 8.9 325 4.1 100680 59
2003-04-10 12:51 51°22.67 3°12.32 9.6 326 4.1 100670 58
2003-04-10 12:52 51°22.68 3°11.92 9.6 329 4.1 100670 58
2003-04-10 12:53 51°22.74 3°11.55 11.3 331 4.2 100670 61
2003-04-10 12:54 51°22.79 3°11.18 10.9 332 4.3 100670 60
2003-04-10 12:55 51°22.87 3°10.83 11.1 338 4.3 100670 58
2003-04-10 12:56 51°22.96 3°10.46 10.7 336 4.4 100670 59
2003-04-10 12:57 51°23.02 3°10.11 10.3 332 4.4 100670 58
2003-04-10 12:58 51°23.03 3°9.72 9.5 315 4.4 100670 60
2003-04-10 12:59 51°22.93 3°9.39 8.6 315 4.3 100670 61
2003-04-10 13:00 51°22.79 3°9.07 7.3 314 4.2 100680 59
2003-04-10 13:01 51°22.66 3°8.74 7.4 318 4.1 100680 60
2003-04-10 13:02 51°22.54 3°8.41 9.2 318 4.1 100670 58
2003-04-10 13:03 51°22.42 3°8.06 6.5 327 4 100680 58
2003-04-10 13:04 51°22.3 3°7.72 6.7 318 4.1 100680 57
2003-04-10 13:05 51°22.18 3°7.38 7.6 333 4.1 100680 59
2003-04-10 13:06 51°22.07 3°7.05 8.1 328 4.1 100680 61
2003-04-10 13:07 51°21.94 3°6.7 6.9 324 4.1 100680 59
2003-04-10 13:08 51°21.83 3°6.35 7.3 321 4.1 100680 59
2003-04-10 13:09 51°21.73 3°6 6.5 325 4.1 100680 59
2003-04-10 13:10 51°21.63 3°5.63 7.8 321 4 100670 57
2003-04-10 13:11 51°21.54 3°5.27 7.7 319 4.1 100680 60
2003-04-10 13:12 51°21.44 3°4.92 7.5 320 4.1 100680 59
2003-04-10 13:13 51°21.34 3°4.55 8.7 320 4.1 100680 63
2003-04-10 13:14 51°21.24 3°4.19 7.7 309 4.2 100680 62
2003-04-10 13:15 51°21.14 3°3.83 7.9 311 4.1 100670 61
2003-04-10 13:16 51°21.04 3°3.47 7.4 318 4.1 100690 59
2003-04-10 13:17 51°20.94 3°3.11 7.9 319 4.1 100690 59
2003-04-10 13:18 51°20.84 3°2.75 8 313 4.1 100680 58
2003-04-10 13:19 51°20.74 3°2.4 7.2 311 4.1 100690 57
2003-04-10 13:20 51°20.64 3°2.05 9.4 314 4.1 100680 59
2003-04-10 13:21 51°20.54 3°1.68 8.5 319 4.1 100690 57
2003-04-10 13:22 51°20.44 3°1.33 7 318 4.1 100690 59
2003-04-10 13:23 51°20.34 3°0.97 8.4 311 4.1 100690 60
2003-04-10 13:24 51°20.25 3°0.63 8.3 310 4.2 100680 59
2003-04-10 13:25 51°20.15 3°0.26 7.1 310 4.2 100680 60
2003-04-10 13:26 51°20.06 2°59.9 8 309 4.1 100690 55
2003-04-10 13:27 51°19.96 2°59.55 6.8 303 4.1 100680 56
2003-04-10 13:28 51°19.86 2°59.18 7.7 320 4.2 100690 56
2003-04-10 13:29 51°19.77 2°58.82 7.5 322 4.2 100690 58
2003-04-10 13:30 51°19.67 2°58.46 8.1 313 4.2 100680 60
2003-04-10 13:31 51°19.57 2°58.1 8 317 4.2 100690 59
2003-04-10 13:32 51°19.48 2°57.74 6.7 313 4.3 100680 62
2003-04-10 13:33 51°19.38 2°57.38 7.4 314 4.2 100690 61
2003-04-10 13:34 51°19.28 2°57.02 9.3 311 4.2 100680 62
2003-04-10 13:35 51°19.18 2°56.66 7.6 316 4.2 100690 61
2003-04-10 13:36 51°19.09 2°56.3 7.3 328 4.2 100690 60
2003-04-10 13:37 51°19 2°55.94 9.4 311 4.2 100690 60
2003-04-10 13:38 51°18.91 2°55.58 8.3 310 4.2 100690 59
2003-04-10 13:39 51°18.82 2°55.21 7.4 313 4.2 100700 58
2003-04-10 13:40 51°18.73 2°54.85 6.7 312 4.2 100690 59
2003-04-10 13:41 51°18.64 2°54.49 8.6 317 4.2 100700 59
2003-04-10 13:42 51°18.55 2°54.14 7.8 309 4.2 100690 61
2003-04-10 13:43 51°18.45 2°53.76 9.7 313 4.2 100700 60
2003-04-10 13:44 51°18.36 2°53.4 7.4 316 4.2 100690 61
2003-04-10 13:45 51°18.27 2°53.04 7.3 314 4.2 100700 62
2003-04-10 13:46 51°18.13 2°52.73 3.3 314 4.2 100690 62
2003-04-10 13:47 51°17.93 2°52.51 5.4 332 4.2 100690 62
2003-04-10 13:48 51°17.69 2°52.42 3.2 335 4.2 100700 61
2003-04-10 13:49 51°17.45 2°52.37 3.5 331 4.3 100700 62
2003-04-10 13:50 51°17.21 2°52.34 3.1 344 4.5 100710 63
2003-04-10 13:51 51°16.97 2°52.41 4.6 21 4.6 100700 65
2003-04-10 13:52 51°16.75 2°52.52 4.6 15 4.7 100690 62
2003-04-10 13:53 51°16.52 2°52.63 4.2 5 4.7 100700 60
2003-04-10 13:54 51°16.29 2°52.75 3.6 23 4.8 100700 60
2003-04-10 13:55 51°16.1 2°52.95 5 40 4.9 100690 61
2003-04-10 13:56 51°15.92 2°53.17 4.9 32 5 100690 60
2003-04-10 13:57 51°15.74 2°53.39 3.9 30 5 100680 60
2003-04-10 13:58 51°15.55 2°53.6 4.2 24 5.1 100700 59
2003-04-10 13:59 51°15.36 2°53.81 3.4 24 5.2 100690 59
2003-04-10 14:00 51°15.18 2°54.01 3.1 32 5.2 100690 57
2003-04-10 14:01 51°14.99 2°54.22 2.1 132 5.2 100690 57
2003-04-10 14:02 51°14.82 2°54.44 3.5 33 5.3 100690 58
2003-04-10 14:03 51°14.65 2°54.65 3.3 18 5.3 100690 56
2003-04-10 14:04 51°14.5 2°54.85 3 28 5.3 100690 55
2003-04-10 14:05 51°14.35 2°55.1 4 40 5.3 100690 55